Weather History for KIRS - March, 2014

Change the Weather History Date:

Wednesday, March 26, 2014

  Actual Average (KHAI) Record (KHAI)
Temperature  
Mean Temperature 24 °F -  
Max Temperature 33 °F 49 °F 78 °F (2007)
Min Temperature 15 °F 30 °F 16 °F (2014)
Degree Days  
Heating Degree Days 41    
Moisture  
Dew Point 14 °F    
Average Humidity 68    
Maximum Humidity 93    
Minimum Humidity 48    
Precipitation  
Precipitation 0.00 in - - ()
Sea Level Pressure  
Sea Level Pressure 30.22 in    
Wind  
Wind Speed 3 mph (SSW)    
Max Wind Speed 12 mph    
Max Gust Speed 16 mph    
Visibility 10 miles    
Events      
Averages and records for this station are not official NWS values.
T = Trace of Precipitation, MM = Missing Value Source: NWS Daily Summary

Daily Weather History Graph

Daily Weather History Graph

Search for Another Location

Airport or City:

Trip Planner

Search our weather history database for the weather conditions in past years. The results will help you decide how hot, cold, wet, or windy it might be!

Date:

Astronomy

Mar. 26, 2014 Rise Set
Actual Time 7:34 AM EDT 8:00 PM EDT
Civil Twilight 7:06 AM EDT 8:28 PM EDT
Nautical Twilight 6:34 AM EDT 9:01 PM EDT
Astronomical Twilight 6:00 AM EDT 9:35 PM EDT
Moon 4:46 AM EDT (3/26) 3:34 PM EDT (3/26)
Length of Visible Light 13h 21m
Length of Day
12h 25m
Waning Crescent, 22% of the Moon is Illuminated
Mar 26
Waning Crescent
Mar 30
New
Apr 7
First Quarter
Apr 15
Full
Apr 22
Last Quarter

Hourly Weather History & Observations

Time (EDT) Temp. Windchill Dew Point Humidity Pressure Visibility Wind Dir Wind Speed Gust Speed Precip Events Conditions
12:15 AM 15.8 °F - 10.4 °F 79% 30.18 in 10.0 mi Calm Calm - N/A   Mostly Cloudy
12:35 AM 15.8 °F - 10.4 °F 79% 30.18 in 10.0 mi Calm Calm - N/A   Overcast
12:55 AM 15.8 °F - 10.4 °F 79% 30.19 in 10.0 mi Calm Calm - N/A   Overcast
1:14 AM 15.8 °F - 12.2 °F 86% 30.19 in 10.0 mi Calm Calm - N/A   Overcast
1:35 AM 15.8 °F - 10.4 °F 79% 30.19 in 10.0 mi Calm Calm - N/A   Overcast
1:55 AM 15.8 °F - 10.4 °F 79% 30.19 in 10.0 mi Calm Calm - N/A   Overcast
2:14 AM 15.8 °F - 12.2 °F 86% 30.19 in 10.0 mi Calm Calm - N/A   Overcast
2:35 AM 17.6 °F - 12.2 °F 79% 30.19 in 10.0 mi Calm Calm - N/A   Overcast
2:55 AM 17.6 °F - 12.2 °F 79% 30.20 in 10.0 mi Calm Calm - N/A   Overcast
3:14 AM 17.6 °F - 12.2 °F 79% 30.20 in 10.0 mi Calm Calm - N/A   Overcast
3:35 AM 17.6 °F - 14.0 °F 86% 30.20 in 10.0 mi Calm Calm - N/A   Overcast
3:55 AM 17.6 °F - 14.0 °F 86% 30.20 in 10.0 mi Calm Calm - N/A   Overcast
4:14 AM 17.6 °F - 14.0 °F 86% 30.20 in 10.0 mi Calm Calm - N/A   Overcast
4:35 AM 17.6 °F 12.3 °F 14.0 °F 86% 30.21 in 10.0 mi WSW 3.5 mph - N/A   Overcast
4:55 AM 17.6 °F - 14.0 °F 86% 30.21 in 10.0 mi Calm Calm - N/A   Overcast
5:15 AM 17.6 °F - 14.0 °F 86% 30.21 in 10.0 mi Calm Calm - N/A   Mostly Cloudy
5:35 AM 15.8 °F - 14.0 °F 93% 30.22 in 10.0 mi Calm Calm - N/A   Mostly Cloudy
5:54 AM 17.6 °F - 14.0 °F 86% 30.22 in 10.0 mi Calm Calm - N/A   Overcast
6:15 AM 15.8 °F - 14.0 °F 93% 30.23 in 10.0 mi Calm Calm - N/A   Overcast
6:35 AM 15.8 °F - 14.0 °F 93% 30.23 in 10.0 mi Calm Calm - N/A   Mostly Cloudy
6:54 AM 15.8 °F - 14.0 °F 93% 30.24 in 10.0 mi Calm Calm - N/A   Mostly Cloudy
7:15 AM 15.8 °F - 14.0 °F 93% 30.25 in 10.0 mi Calm Calm - N/A   Scattered Clouds
7:35 AM 15.8 °F - 14.0 °F 93% 30.26 in 10.0 mi Calm Calm - N/A   Scattered Clouds
7:54 AM 15.8 °F - 14.0 °F 93% 30.26 in 10.0 mi Calm Calm - N/A   Scattered Clouds
8:15 AM 17.6 °F - 15.8 °F 93% 30.27 in 10.0 mi Calm Calm - N/A   Scattered Clouds
8:35 AM 17.6 °F - 15.8 °F 93% 30.28 in 10.0 mi Calm Calm - N/A   Clear
8:54 AM 19.4 °F - 15.8 °F 86% 30.29 in 10.0 mi Calm Calm - N/A   Clear
9:15 AM 19.4 °F - 14.0 °F 80% 30.30 in 10.0 mi Calm Calm - N/A   Clear
9:34 AM 19.4 °F - 12.2 °F 74% 30.30 in 10.0 mi Calm Calm - N/A   Mostly Cloudy
9:55 AM 21.2 °F - 12.2 °F 68% 30.29 in 10.0 mi Calm Calm - N/A   Scattered Clouds
10:15 AM 21.2 °F - 10.4 °F 63% 30.30 in 10.0 mi Calm Calm - N/A   Scattered Clouds
10:34 AM 21.2 °F 11.7 °F 10.4 °F 63% 30.31 in 10.0 mi WSW 8.1 mph - N/A   Mostly Cloudy
10:55 AM 23.0 °F 15.8 °F 12.2 °F 63% 30.32 in 10.0 mi SW 5.8 mph - N/A   Overcast
11:15 AM 23.0 °F 15.8 °F 12.2 °F 63% 30.32 in 10.0 mi SW 5.8 mph - N/A   Mostly Cloudy
11:34 AM 24.8 °F 16.9 °F 12.2 °F 59% 30.32 in 10.0 mi SW 6.9 mph - N/A   Mostly Cloudy
11:55 AM 24.8 °F - 12.2 °F 59% 30.31 in 10.0 mi Calm Calm - N/A   Mostly Cloudy
12:15 PM 24.8 °F 15.3 °F 12.2 °F 59% 30.31 in 10.0 mi SSW 9.2 mph - N/A   Mostly Cloudy
12:34 PM 24.8 °F 14.0 °F 12.2 °F 59% 30.31 in 10.0 mi SSW 11.5 mph - N/A   Mostly Cloudy
12:55 PM 26.6 °F 18.2 °F 12.2 °F 55% 30.30 in 10.0 mi West 8.1 mph - N/A   Mostly Cloudy
1:15 PM 26.6 °F 18.2 °F 12.2 °F 55% 30.29 in 10.0 mi SSW 8.1 mph - N/A   Scattered Clouds
1:34 PM 26.6 °F 20.0 °F 12.2 °F 55% 30.28 in 10.0 mi SW 5.8 mph 10.4 mph N/A   Scattered Clouds
1:55 PM 26.6 °F 19.1 °F 12.2 °F 55% 30.28 in 10.0 mi SW 6.9 mph - N/A   Scattered Clouds
2:14 PM 26.6 °F 19.1 °F 12.2 °F 55% 30.27 in 10.0 mi SW 6.9 mph - N/A   Scattered Clouds
2:35 PM 28.4 °F 20.4 °F 12.2 °F 51% 30.27 in 10.0 mi SW 8.1 mph 16.1 mph N/A   Scattered Clouds
2:55 PM 28.4 °F 20.4 °F 12.2 °F 51% 30.25 in 10.0 mi South 8.1 mph 16.1 mph N/A   Scattered Clouds
3:14 PM 30.2 °F 22.6 °F 14.0 °F 51% 30.24 in 10.0 mi SW 8.1 mph - N/A   Scattered Clouds
3:35 PM 28.4 °F - 12.2 °F 51% 30.23 in 10.0 mi Calm Calm - N/A   Scattered Clouds
3:55 PM 30.2 °F 21.9 °F 15.8 °F 55% 30.22 in 10.0 mi SSW 9.2 mph - N/A   Clear
4:14 PM 32.0 °F 24.8 °F 15.8 °F 51% 30.22 in 10.0 mi SSW 8.1 mph - N/A   Clear
4:35 PM 32.0 °F 24.2 °F 15.8 °F 51% 30.21 in 10.0 mi SW 9.2 mph - N/A   Clear
4:54 PM 32.0 °F 23.6 °F 15.8 °F 51% 30.20 in 10.0 mi SW 10.4 mph - N/A   Clear
5:15 PM 32.0 °F 24.8 °F 15.8 °F 51% 30.19 in 10.0 mi SSW 8.1 mph - N/A   Clear
5:35 PM 33.8 °F 25.3 °F 15.8 °F 48% 30.19 in 10.0 mi SSW 11.5 mph - N/A   Clear
5:54 PM 33.8 °F 26.4 °F 15.8 °F 48% 30.18 in 10.0 mi SSW 9.2 mph - N/A   Clear
6:15 PM 33.8 °F 25.3 °F 15.8 °F 48% 30.18 in 10.0 mi SW 11.5 mph - N/A   Clear
6:35 PM 33.8 °F 25.8 °F 15.8 °F 48% 30.17 in 10.0 mi SSW 10.4 mph - N/A   Clear
6:54 PM 33.8 °F 26.4 °F 15.8 °F 48% 30.17 in 10.0 mi SSW 9.2 mph - N/A   Clear
7:15 PM 33.8 °F 25.3 °F 15.8 °F 48% 30.17 in 10.0 mi SSW 11.5 mph - N/A   Clear
7:35 PM 32.0 °F 23.6 °F 15.8 °F 51% 30.16 in 10.0 mi SSW 10.4 mph - N/A   Clear
7:54 PM 30.2 °F 23.4 °F 17.6 °F 60% 30.17 in 10.0 mi South 6.9 mph - N/A   Clear
8:15 PM 30.2 °F 22.6 °F 17.6 °F 60% 30.16 in 10.0 mi South 8.1 mph - N/A   Clear
8:34 PM 30.2 °F 24.3 °F 17.6 °F 60% 30.16 in 10.0 mi South 5.8 mph - N/A   Clear
8:55 PM 30.2 °F 24.3 °F 17.6 °F 60% 30.17 in 10.0 mi South 5.8 mph - N/A   Clear
9:15 PM 30.2 °F 24.3 °F 17.6 °F 60% 30.17 in 10.0 mi SSE 5.8 mph - N/A   Mostly Cloudy
9:34 PM 30.2 °F 24.3 °F 17.6 °F 60% 30.16 in 10.0 mi SSE 5.8 mph - N/A   Overcast
9:55 PM 30.2 °F 22.6 °F 17.6 °F 60% 30.16 in 10.0 mi SSE 8.1 mph - N/A   Overcast
10:15 PM 30.2 °F 22.6 °F 17.6 °F 60% 30.15 in 10.0 mi SSE 8.1 mph - N/A   Overcast
10:34 PM 30.2 °F 21.9 °F 17.6 °F 60% 30.14 in 10.0 mi SSE 9.2 mph - N/A   Overcast
10:55 PM 30.2 °F 21.3 °F 17.6 °F 60% 30.13 in 10.0 mi SSE 10.4 mph - N/A   Overcast
11:15 PM 32.0 °F 24.2 °F 17.6 °F 55% 30.12 in 10.0 mi SSE 9.2 mph - N/A   Overcast
11:35 PM 32.0 °F 24.2 °F 17.6 °F 55% 30.11 in 10.0 mi SSE 9.2 mph - N/A   Overcast
11:55 PM 32.0 °F 23.0 °F 17.6 °F 55% 30.10 in 10.0 mi SSE 11.5 mph - N/A   Overcast